SB KEPS @ AMSAT $ORB09071.N 2Line Orbital Elements 09071.AMSAT
HR AMSAT ORBITAL ELEMENTS FOR AMATEUR SATELLITES IN NASA FORMAT FROM WA5QGD FORT WORTH,TX March 12, 2009 Send Subscribe/unsubscribe to KEPS at http://www.amsat.org/mailman/listinfo/keps BID: ORB09071.N
DECODE 2-LINE ELSETS WITH THE FOLLOWING KEY: 1 AAAAAU 00 0 0 BBBBB.BBBBBBBB .CCCCCCCC 00000-0 00000-0 0 DDDZ 2 AAAAA EEE.EEEE FFF.FFFF GGGGGGG HHH.HHHH III.IIII JJ.JJJJJJJJKKKKKZ KEY: A-CATALOGNUM B-EPOCHTIME C-DECAY D-ELSETNUM E-INCLINATION F-RAAN G-ECCENTRICITY H-ARGPERIGEE I-MNANOM J-MNMOTION K-ORBITNUM Z-CHECKSUM
TO ALL RADIO AMATEURS BT
AO-07 1 07530U 74089B 09070.64518355 -.00000027 00000-0 10000-3 0 04243 2 07530 101.4377 098.8704 0012074 099.5496 260.6938 12.53575326570490 AO-10 1 14129U 83058B 09069.65303323 -.00000136 00000-0 10000-3 0 06329 2 14129 025.9749 167.5509 5979132 204.6974 107.8414 02.05867899193592 UO-11 1 14781U 84021B 09070.70377287 .00000187 00000-0 32078-4 0 9072 2 14781 098.1194 114.2301 0008152 294.9207 065.1150 14.79699284343418 RS-15 1 23439U 94085A 09070.95120493 -.00000039 00000-0 10000-3 0 02378 2 23439 064.8132 062.0539 0146228 070.4260 291.2389 11.27553248585150 FO-29 1 24278U 96046B 09070.75490407 -.00000032 00000-0 59607-5 0 00012 2 24278 098.5663 317.8157 0349829 242.7597 113.7498 13.52941946620572 SO-33 1 25509U 98061B 09070.82880247 .00000308 00000-0 47184-4 0 04073 2 25509 031.4319 243.0131 0354683 207.3285 150.8278 14.28247764541909 AO-40 1 26609U 00072B 09070.74493273 -.00000325 00000-0 10000-3 0 2018 2 26609 008.9102 028.8958 7955221 183.6787 160.9658 01.25583457 38406 RS-22 1 27939U 03042A 09070.68997137 .00000034 00000-0 15394-4 0 7367 2 27939 097.9588 309.0294 0014679 080.0252 280.2612 14.63299572291314 VO-52 1 28650U 05017B 09070.72862253 -.00000130 00000-0 -98108-5 0 1758 2 28650 097.7528 135.4844 0027130 350.3959 009.6772 14.81559000208214 PO-63 1 29712U 07001D 09071.16731708 .00000423 00000-0 61984-4 0 3039 2 29712 097.8402 129.8502 0013227 228.3604 131.6469 14.80466181117110 AO-16 1 20439U 90005D 09070.78941705 .00000009 00000-0 18516-4 0 05540 2 20439 098.2672 043.6775 0011934 099.6208 260.6322 14.31818045999214 LO-19 1 20442U 90005G 09070.79250867 -.00000039 00000-0 50897-6 0 04764 2 20442 098.2322 051.3140 0012979 097.3562 262.9089 14.32054254999377 AO-27 1 22825U 93061C 09071.53709153 .00000089 00000-0 51534-4 0 1966 2 22825 098.4250 028.0578 0008342 183.3809 176.7317 14.29260754806105 IO-26 1 22826U 93061D 09070.91433509 .00000010 00000-0 20377-4 0 09173 2 22826 098.4175 028.2465 0008699 181.4435 178.6719 14.29511487806118 GO-32 1 25397U 98043D 09070.90911461 -.00000021 00000-0 88389-5 0 08429 2 25397 098.3352 098.4201 0001465 137.9232 222.2062 14.23155688554299 NO-44 1 26931U 01043C 09071.17615754 .00000237 00000-0 12496-3 0 1182 2 26931 067.0550 314.2719 0005183 265.5189 094.5336 14.29550646388715 SO-50 1 27607U 02058C 09070.79456488 -.00000096 00000-0 72956-5 0 08342 2 27607 064.5611 320.8881 0076777 226.9170 132.5498 14.71418596334343 CO-55 1 27844U 03031E 09070.58639166 .00000038 00000-0 37839-4 0 5308 2 27844 098.7161 081.1221 0010814 066.9822 293.2493 14.20626009295403 CO-57 1 27848U 03031J 09070.55037388 .00000037 00000-0 37773-4 0 4773 2 27848 098.7170 080.1495 0010620 069.0402 291.1917 14.20429909295365 AO-51 1 28375U 04025K 09070.58975028 .00000004 00000-0 13596-4 0 03374 2 28375 098.0563 085.8684 0085147 061.2857 299.6858 14.40635232246909 CO-56 1 28941U 06005C 09071.47273898 .00060040 36183-5 28250-3 0 8939 2 28941 098.1282 228.6184 0112726 135.7236 225.3189 15.74222420171988 CP3 1 31128U 07012M 09070.71301768 -.00000047 00000-0 00000-0 0 05789 2 31128 098.0002 128.3175 0102021 226.6913 132.5763 14.52024425100757 CP4 1 31132U 07012Q 09070.71341140 -.00000061 00000-0 -29404-5 0 05626 2 31132 098.0042 131.8272 0084890 216.2340 143.3071 14.55188340100858 CO-65 1 32785U 08021C 09070.66266215 -.00000064 00000-0 -13083-5 0 03206 2 32785 097.9578 135.3886 0014837 352.7518 007.3477 14.81455017047005 NOAA-10 1 16969U 86073A 09070.93130429 .00000056 00000-0 40677-4 0 05324 2 16969 098.7014 098.0662 0012959 118.5484 241.6994 14.27381955169635 NOAA-11 1 19531U 88089A 09070.76038007 -.00000246 00000-0 -10470-3 0 05444 2 19531 098.7834 162.2228 0012063 029.4970 330.6869 14.14889058055740 NOAA-12 1 21263U 91032A 09070.96889374 .00000026 00000-0 29680-4 0 00605 2 21263 098.7736 078.9789 0013382 069.1637 291.0975 14.25569561926546 MET-3/5 1 21655U 91056A 09070.90879546 .00000051 00000-0 10000-3 0 06137 2 21655 082.5510 275.2289 0014655 064.7014 295.5625 13.17018723844823 MET-2/21 1 22782U 93055A 09070.91670523 .00000074 00000-0 53838-4 0 04034 2 22782 082.5428 259.1682 0020981 259.3376 100.5411 13.83634264784157 OKEAN-4 1 23317U 94066A 09071.45889125 .00000009 00000-0 -17770-5 0 8514 2 23317 082.5353 064.7497 0021393 327.5856 032.4052 14.82679197778030 NOAA-14 1 23455U 94089A 09070.92904167 -.00000208 00000-0 -86522-4 0 05448 2 23455 098.9155 148.9284 0010338 105.9211 254.3087 14.13757378732184 NOAA-15 1 25338U 98030A 09069.38356814 -.00000038 00000-0 22273-5 0 8490 2 25338 098.5794 060.7867 0010399 351.7447 008.3581 14.24748531562706 RESURS 1 25394U 98043A 09070.71523616 -.00000030 00000-0 49939-5 0 01719 2 25394 098.3527 107.9728 0001949 110.1492 249.9897 14.24180445554526 FENGYUN1 1 25730U 99025A 09070.92361762 .00000175 00000-0 12754-3 0 07267 2 25730 098.7482 044.0235 0022695 131.3882 228.9243 14.07936289506634 OKEAN-0 1 25860U 99039A 09070.93350001 .00000024 00000-0 10887-4 0 06225 2 25860 097.7773 056.0236 0001628 092.8457 267.2946 14.73561856518823 NOAA-16 1 26536U 00055A 09070.75298363 .00000177 00000-0 12078-3 0 03238 2 26536 099.1761 072.0654 0010375 190.6312 169.4624 14.12513601436547 NOAA-17 1 27453U 02032A 09070.89875405 .00000130 00000-0 74759-4 0 03332 2 27453 098.4969 133.2722 0012446 051.4993 308.7272 14.24047183348903 NOAA-18 1 28654U 05018A 09070.91623785 -.00000086 00000-0 -23040-4 0 08208 2 28654 098.8990 014.9515 0013487 278.6005 081.3661 14.11238600196238 NOAA-19 1 33591U 09005A 09071.30088403 -.00000207 00000-0 -91640-4 0 310 2 33591 098.7373 019.6287 0014283 154.4877 205.7013 14.10939685 4779 HUBBLE 1 20580U 90037B 09070.94198851 .00000291 00000-0 96365-5 0 03489 2 20580 028.4710 016.7521 0003453 350.1026 009.9493 15.00461980835232 PO-34 1 25520U 98064B 09071.43672936 .00000392 00000-0 95024-5 0 2024 2 25520 028.4594 182.7248 0004914 325.4465 034.5796 15.17307125573941 ISS 1 25544U 98067A 09070.80611111 .00007951 00000-0 65598-4 0 04382 2 25544 051.6397 085.8155 0009687 113.1247 226.4121 15.71391070590628 CO-58 1 28895U 05043F 09070.72986808 .00000012 00000-0 12075-4 0 02533 2 28895 098.0724 324.0126 0016849 294.7779 065.1602 14.59747686179515 FALCON 1 30776U 07006E 09070.92971490 .00000284 00000-0 23631-4 0 05284 2 30776 035.4343 329.4642 0000624 211.5410 148.5269 15.03185557110459 MAST 1 31126U 07012K 09069.17926044 -.00000049 00000-0 -30955-6 0 05461 2 31126 098.0012 128.4626 0094132 226.6312 132.7027 14.53481094100658 CAPE1 1 31130U 07012P 09070.63600377 -.00000120 00000-0 -16820-4 0 05505 2 31130 098.0041 128.2564 0101868 226.9833 132.2785 14.52038479100537 COMPASS 1 32787U 08021E 09070.64693716 .00000125 00000-0 22708-4 0 03058 2 32787 097.9542 135.2510 0015700 353.8462 006.2530 14.81559421047003 AAUSAT2 1 32788U 08021F 09070.89295544 .00000142 00000-0 24850-4 0 03063 2 32788 097.9547 135.5395 0015319 355.1736 004.9296 14.81679666047040 DO-64 1 32789U 08021G 09070.71004542 .00000259 00000-0 39729-4 0 03140 2 32789 097.9585 135.4631 0015602 352.8013 007.2958 14.81633451047012 CO-66 1 32791U 08021J 09070.61127511 .00000233 00000-0 36599-4 0 02989 2 32791 097.9565 135.2469 0016190 351.7850 008.3091 14.81397346046963 RS-30 1 32953U 08025A 09070.23383614 .00000010 00000-0 00000 0 0 2525 2 32953 082.5049 317.5369 0020057 033.8318 326.4039 12.42999910 36222 /EX